Location: Narrabri
(30.3170°S, 149.7830°E)
Time: 16:03:24
(UTC+11:00)

Hubble Space Telescope - Visible Passes

Search period start: 18 December 2017 00:00
Search period end: 28 December 2017 00:00
Orbit: 537 x 541 km, 28.5° (Epoch: 17 December)

Date Brightness Start Highest point End Pass type
(mag) Time Alt. Az. Time Alt. Az. Time Alt. Az.
18 Dec 3.5 02:57:53 13° E 02:57:53 13° E 02:58:20 10° E visible
18 Dec 0.7 04:33:15 26° WNW 04:35:27 68° N 04:39:36 10° E visible
19 Dec 0.7 04:23:31 34° WNW 04:25:14 69° N 04:29:23 10° E visible
20 Dec 0.7 04:13:54 45° WNW 04:15:00 68° N 04:19:09 10° E visible
21 Dec 0.7 04:04:22 60° NW 04:04:46 65° N 04:08:54 10° ENE visible
22 Dec 1.0 03:55:02 55° NNE 03:55:02 55° NNE 03:58:39 10° ENE visible
23 Dec 1.9 03:45:54 32° NE 03:45:54 32° NE 03:48:22 10° ENE visible
23 Dec 2.1 05:21:52 10° WNW 05:25:11 23° NNW 05:28:30 10° NNE visible
24 Dec 2.9 03:37:01 17° ENE 03:37:01 17° ENE 03:38:03 10° ENE visible
24 Dec 2.3 05:12:25 12° WNW 05:14:52 18° NNW 05:17:47 10° NNE visible
25 Dec 2.5 05:03:50 14° NW 05:04:33 15° NNW 05:06:53 10° N visible
26 Dec 3.0 04:55:27 10° N 04:55:27 10° N 04:55:30 10° N visible
26 Dec 2.5 21:56:18 10° NW 21:58:00 21° NNW 21:58:00 21° NNW visible
27 Dec 1.4 21:45:53 10° NW 21:49:14 37° N 21:49:14 37° N visible
